This is the latest recevied weather packets stored in our database for station/object K3BAK-13. If no packets are shown the sender has not sent any weather packets the latest 10 day(s).
| Time | Temp. | Humidity | Pressure | Rain* | Wind** | Luminosity | Snow |
|---|---|---|---|---|---|---|---|
| 1777498859 | 14.44° C | 93% | 1007 hPa | 0.25 mm | - | - | - |
| 1777498558 | 14.44° C | 93% | 1006.7 hPa | 0.25 mm | - | - | - |
| 1777497660 | 14.44° C | 93% | 1007.2 hPa | 0.25 mm | - | - | - |
| 1777496762 | 14.44° C | 92% | 1007 hPa | 0 mm | - | - | - |
| 1777493765 | 15° C | 93% | 1007.1 hPa | 1.02 mm | - | - | - |
| 1777493158 | 15.56° C | 93% | 1006.9 hPa | 1.02 mm | - | - | - |
| 1777492558 | 15.56° C | 94% | 1006.7 hPa | 1.02 mm | - | - | - |
| 1777491970 | 15.56° C | 94% | 1006.8 hPa | 1.27 mm | - | - | - |
| 1777491361 | 15.56° C | 93% | 1006.8 hPa | 1.02 mm | - | - | - |
| 1777490226 | 16.11° C | 93% | 1006.7 hPa | 0.76 mm | - | - | - |
| 1777489558 | 16.11° C | 93% | 1006.9 hPa | 1.02 mm | - | - | - |
| 1777489272 | 16.11° C | 93% | 1006.9 hPa | 1.02 mm | - | - | - |
| 1777487761 | 16.67° C | 91% | 1006.9 hPa | 0.76 mm | - | - | - |
| 1777486259 | 17.22° C | 92% | 1007 hPa | 0 mm | - | - | - |
| 1777485663 | 17.22° C | 93% | 1007 hPa | 0 mm | - | - | - |
| 1777485358 | 17.22° C | 93% | 1007 hPa | 0 mm | - | - | - |
| 1777485062 | 17.22° C | 93% | 1007.1 hPa | 0 mm | - | - | - |
| 1777483259 | 17.22° C | 94% | 1007.4 hPa | 0 mm | - | - | - |
| 1777480863 | 16.67° C | 96% | 1008.6 hPa | 0 mm | - | - | - |
| 1777479960 | 16.11° C | 95% | 1009.1 hPa | 0.25 mm | - | - | - |
| 1777479060 | 16.67° C | 96% | 1009.3 hPa | 0.51 mm | - | - | - |
| 1777478759 | 16.67° C | 96% | 1009.3 hPa | 0.51 mm | - | - | - |
| 1777478160 | 16.11° C | 96% | 1009.5 hPa | 0.51 mm | - | - | - |
| 1777477570 | 16.11° C | 97% | 1009.5 hPa | 0.51 mm | - | - | - |
| 1777476959 | 16.11° C | 97% | 1009.7 hPa | 0.51 mm | - | - | - |
* Rain latest hour (hover to see other rain measurements)
** Current wind speed in m/s (hover to see current wind gust speed)